Regional Weather Roundup
Issued by NWS

Home | Current Version | Previous Version | Graphics & Text | Print | Product List | Glossary On
Versions: 1 2 3 4 5 6 7 8 9 10 11 12 13 14 15 16 17 18 19 20 21 22 23 24 25 26 27 28 29 30 31 32 33 34 35 36 37 38 39 40 41 42 43 44 45 46 47 48 49 50
307
ASUS45 KABQ 111301
RWRNM
NEW MEXICO REGIONAL WEATHER ROUNDUP
NATIONAL WEATHER SERVICE ALBUQUERQUE NM
600 AM MST MON DEC 11 2017

NOTE: "FAIR" MEANS FEW OR NO CLOUDS BELOW 12,000 FEET AGL WITH NO
       SIGNIFICANT WEATHER OR OBSTRUCTIONS TO VISION.

      THIS PRODUCT IS RELEASED AS TWO VERSIONS.  ONE VERSION NEAR
      THE TOP OF THE HOUR CONTAINING PRELIMINARY DATA FROM ALBUQUERQUE
      AND OTHER STATIONS.  A FINAL VERSION WITH ADDITIONAL DATA IS
      ISSUED ABOUT 10 MINUTES AFTER THE HOUR.

NMZ501-503-504-510>518-111400-
NORTHWEST PLATEAU/NORTHCENTRAL MOUNTAINS

CITY           SKY/WX    TMP DP  RH WIND       PRES   REMARKS
FARMINGTON     FAIR      11  -1  58 E7        30.51R WCI   0
LOS ALAMOS     FAIR      32  -5  20 CALM      30.46R
SANTA FE       FAIR      21   1  41 N9        30.43S WCI  11
TAOS           FAIR      12  -2  53 N5        30.52R WCI   4
ANGEL FIRE     FAIR       2  -2  83 CALM      30.52R

$$
NMZ402-403-502-505>509-111400-
WESTCENTRAL MOUNTAINS/SOUTHWEST MOUNTAINS

CITY           SKY/WX    TMP DP  RH WIND       PRES   REMARKS
GALLUP         FAIR       0 -17  44 NE5       30.50F WCI -10
GRANTS         FAIR      11 -15  28 W6        30.51F WCI   2
SILVER CITY    FAIR      29  -2  26 N6        30.40S WCI  23

$$
NMZ407-409-411-412-111400-
SOUTHERN DESERTS

CITY           SKY/WX    TMP DP  RH WIND       PRES   REMARKS
DEMING         FAIR      31   8  38 N3        30.41R
LAS CRUCES     FAIR      36  11  35 NW5       30.40S WCI  32
HOLLOMAN AFB   FAIR      25   7  46 W8        30.43F WCI  16
ALAMOGORDO     FAIR      32  10  40 CALM      30.40F
T OR C         FAIR      32   3  29 NW6       30.42S WCI  26

$$
NMZ519>523-111400-
CENTRAL VALLEYS/CENTRAL HIGHLANDS

CITY           SKY/WX    TMP DP  RH WIND       PRES   REMARKS
ALBUQUERQUE    FAIR      27   2  34 N6        30.46F WCI  20
DOUBLE EAGLE   CLEAR     16  -2  45 NW7       30.46  WCI   6
MORIARTY ARPT  FAIR      15   0  51 NE3       30.45F
CLINES CORNERS FAIR      24  -2  32 NW16      30.41F WCI  11
BELEN          FAIR      18  -1  43 N7        30.48R WCI   9
SOCORRO        FAIR      24   3  40 N9        30.47R WCI  14

$$
NMZ524>526-539-540-111400-
SOUTHCENTRAL MOUNTAINS

CITY           SKY/WX    TMP DP  RH WIND       PRES   REMARKS
RUIDOSO        FAIR      37 -13  11 N5        30.43S WCI  34

$$
NMZ527>531-111400-
NORTHEAST HIGHLANDS/NORTHEAST PLAINS

CITY           SKY/WX    TMP DP  RH WIND       PRES   REMARKS
LAS VEGAS      FAIR      31  -5  21 N8        30.38S WCI  23
RATON          FAIR      25   0  33 NE9       30.37R WCI  15
CLAYTON        FAIR      45  -6  11 NW14      30.28S

$$
NMZ532>537-111400-
EASTCENTRAL PLAINS

CITY           SKY/WX    TMP DP  RH WIND       PRES   REMARKS
SANTA ROSA     FAIR      32   4  31 NW7       30.33S WCI  25
TUCUMCARI      FAIR      26   6  42 W10       30.29S WCI  16
CANNON AFB     FAIR      33   6  31 W13       30.32F WCI  24
CLOVIS AIRPORT FAIR      33   7  33 W14       30.31S WCI  23

$$
NMZ028-029-538-111400-
SOUTHEAST PLAINS

CITY           SKY/WX    TMP DP  RH WIND       PRES   REMARKS
ROSWELL        FAIR      26   9  48 NW3       30.34F
ARTESIA        FAIR      27   7  43 N6        30.35S WCI  20
CARLSBAD       FAIR      26  24  92 CALM      30.33S
HOBBS          CLEAR     27  18  69 NW10      30.32F WCI  17


$$




USA.gov is the U.S. government's official web portal to all federal, state and local government web resources and services.